FW8701 Weather Reports


Display with metric or nautical units.
time (UTC)temp
F
wind
direction
speed
MPH
gust
MPH
rain 1hr
in
rain 24hr
in
rain mn
in
humidity
%
barometer
mb
20260503203321 61 191 1.0 2.0 0.00 0.00 0.00 64 1005.1
20260503202817 62 185 0.0 1.0 0.00 0.00 0.00 59 1005.2
20260503202316 62 61 2.0 2.0 0.00 0.00 0.00 59 1005.1
20260503201814 61 198 1.0 1.0 0.00 0.00 0.00 61 1005.2
20260503201310 61 297 2.0 3.0 0.00 0.00 0.00 61 1005.2
20260503200808 61 235 3.0 3.0 0.00 0.00 0.00 62 1005.4
20260503200303 61 202 1.0 5.0 0.00 0.00 0.00 64 1005.2
20260503195801 61 314 4.0 5.0 0.00 0.00 0.00 62 1005.1
20260503195257 61 321 1.0 2.0 0.00 0.00 0.00 63 1005.3
20260503194755 61 203 3.0 13.0 0.00 0.00 0.00 63 1005.2
20260503194250 61 200 0.0 2.0 0.00 0.00 0.00 65 1005.3
20260503193747 60 222 0.0 3.0 0.00 0.00 0.00 66 1005.4
20260503193243 60 202 0.0 5.0 0.00 0.00 0.00 64 1005.4
20260503192739 60 163 0.0 2.0 0.00 0.00 0.00 64 1005.3
20260503192234 60 305 2.0 2.0 0.00 0.00 0.00 63 1005.3
20260503191731 60 167 1.0 5.0 0.00 0.00 0.00 63 1005.4
20260503191228 60 255 2.0 2.0 0.00 0.00 0.00 63 1005.4
20260503190725 60 292 1.0 2.0 0.00 0.00 0.00 64 1005.5
20260503190222 60 197 0.0 1.0 0.00 0.00 0.00 64 1005.2
20260503185719 60 239 1.0 1.0 0.00 0.00 0.00 64 1005.5
20260503185214 60 223 0.0 0.0 0.00 0.00 0.00 64 1005.4
20260503184709 60 206 1.0 1.0 0.00 0.00 0.00 66 1005.5
20260503184206 60 183 0.0 2.0 0.00 0.00 0.00 65 1005.0
20260503183702 60 348 2.0 2.0 0.00 0.00 0.00 63 1005.4
20260503183200 60 207 0.0 1.0 0.00 0.00 0.00 67 1005.1
20260503182658 60 206 0.0 1.0 0.00 0.00 0.00 65 1005.6
20260503182156 60 302 1.0 3.0 0.00 0.00 0.00 65 1005.3
20260503181652 60 206 0.0 1.0 0.00 0.00 0.00 68 1005.2
20260503181149 60 48 2.0 3.0 0.00 0.00 0.00 66 1005.2
20260503180646 60 219 1.0 2.0 0.00 0.00 0.00 68 1005.3
20260503180144 59 207 0.0 1.0 0.00 0.00 0.00 69 1005.2
20260503175640 59 255 2.0 3.0 0.00 0.00 0.00 70 1005.4
20260503175132 59 335 1.0 1.0 0.00 0.00 0.00 71 1005.3
20260503174628 59 33 2.0 3.0 0.00 0.00 0.00 69 1005.3
20260503174126 59 185 0.0 1.0 0.00 0.00 0.00 69 1005.3
20260503173620 60 168 1.0 2.0 0.00 0.00 0.00 67 1005.3
20260503173117 60 198 0.0 2.0 0.00 0.00 0.00 69 1005.3
20260503172614 59 247 1.0 1.0 0.00 0.00 0.00 70 1005.3
20260503172112 57 190 0.0 1.0 0.00 0.00 0.00 70 1005.3
20260503171608 58 189 1.0 2.0 0.00 0.00 0.00 71 1005.5
20260503171106 57 211 0.0 2.0 0.00 0.00 0.00 76 1005.4
20260503170602 57 138 1.0 3.0 0.00 0.00 0.00 73 1005.2
20260503150948 54 201 0.0 0.0 0.00 0.00 0.00 90 1004.8
20260503150445 54 202 0.0 0.0 0.00 0.00 0.00 89 1004.8
20260503131338 52 191 0.0 0.0 0.00 0.00 0.00 93 1003.5
20260503130835 52 187 0.0 0.0 0.00 0.00 0.00 93 1003.7
20260503130333 52 187 0.0 0.0 0.00 0.00 0.00 93 1003.7
20260503110726 51 188 0.0 0.0 0.00 0.00 0.00 93 1003.5
20260503110224 51 150 0.0 0.0 0.00 0.00 0.00 93 1003.6
20260503100150 52 197 0.0 0.0 0.00 0.00 0.00 91 1003.4
20260503090109 53 189 0.0 0.0 0.00 0.00 0.00 87 1003.6
20260503081538 53 207 0.0 0.0 0.00 0.00 0.00 86 1004.2
20260503081036 53 202 0.0 0.0 0.00 0.00 0.00 86 1004.2
20260503080532 53 206 0.0 1.0 0.00 0.00 0.00 86 1004.1
20260503072506 53 195 0.0 1.0 0.00 0.00 0.00 86 1003.9
20260503072003 53 170 1.0 1.0 0.00 0.00 0.00 85 1004.0
20260503071500 53 186 0.0 2.0 0.00 0.00 0.00 85 1004.1
20260503070955 53 208 0.0 1.0 0.00 0.00 0.00 85 1004.0
20260503070453 53 201 1.0 1.0 0.00 0.00 0.00 85 1004.1
20260503054912 53 198 0.0 1.0 0.00 0.00 0.00 84 1004.3
20260503054408 53 198 0.0 1.0 0.00 0.00 0.00 84 1004.4
20260503053906 53 196 0.0 0.0 0.00 0.00 0.00 84 1004.4
20260503053404 53 182 0.0 1.0 0.00 0.00 0.00 84 1004.3
20260503052859 53 196 0.0 1.0 0.00 0.00 0.00 85 1004.2
20260503052357 53 209 0.0 1.0 0.00 0.00 0.00 84 1004.3
20260503051853 54 199 0.0 0.0 0.00 0.00 0.00 84 1004.5
20260503051349 54 202 0.0 0.0 0.00 0.00 0.00 84 1004.6
20260503050846 54 206 0.0 1.0 0.00 0.00 0.00 85 1004.5
20260503050343 54 190 0.0 0.0 0.00 0.00 0.00 83 1004.6
20260503045840 54 199 0.0 0.0 0.00 0.00 0.00 84 1004.6
20260503045338 54 196 0.0 0.0 0.00 0.00 0.00 84 1004.3
20260503044834 54 210 0.0 1.0 0.00 0.00 0.00 83 1004.5
20260503044331 54 207 0.0 1.0 0.00 0.00 0.00 83 1004.3
20260503043828 54 187 0.0 0.0 0.00 0.00 0.00 83 1004.4
20260503043325 54 210 1.0 1.0 0.00 0.00 0.00 84 1004.2
20260503042821 54 191 0.0 0.0 0.00 0.00 0.00 84 1004.2
20260503042318 54 185 0.0 2.0 0.00 0.00 0.00 83 1004.3
20260503041814 54 208 1.0 3.0 0.00 0.00 0.00 83 1004.2
20260503041312 54 205 0.0 0.0 0.00 0.00 0.00 83 1004.1
20260503040809 54 191 0.0 0.0 0.00 0.00 0.00 83 1004.2
20260503040307 54 216 2.0 2.0 0.00 0.00 0.00 82 1003.8
20260503035803 54 183 0.0 1.0 0.00 0.00 0.00 83 1004.1
20260503035301 54 168 0.0 1.0 0.00 0.00 0.00 83 1003.7
20260503034758 54 197 1.0 2.0 0.00 0.00 0.00 82 1003.8
20260503034255 54 196 1.0 3.0 0.00 0.00 0.00 82 1003.9
20260503033752 55 177 0.0 0.0 0.00 0.00 0.00 82 1003.6
20260503033250 55 176 1.0 1.0 0.00 0.00 0.00 82 1003.5
20260503032748 55 183 0.0 0.0 0.00 0.00 0.00 82 1003.6
20260503032246 55 334 0.0 2.0 0.00 0.00 0.00 81 1003.6
20260503031742 55 186 0.0 1.0 0.00 0.00 0.00 83 1003.4
20260503031241 55 188 0.0 0.0 0.00 0.00 0.00 83 1003.3
20260503030737 55 206 1.0 2.0 0.00 0.00 0.00 82 1003.4
20260503030233 55 350 2.0 2.0 0.00 0.00 0.00 81 1003.4
20260503025725 55 178 0.0 2.0 0.00 0.00 0.00 82 1003.3
20260503025222 56 219 1.0 2.0 0.00 0.00 0.00 82 1003.1
20260503024719 56 186 0.0 1.0 0.00 0.00 0.00 82 1003.4
20260503024216 56 174 0.0 1.0 0.00 0.00 0.00 81 1003.1
20260503023713 56 193 0.0 2.0 0.00 0.00 0.00 81 1003.2
20260503023209 56 198 0.0 1.0 0.00 0.00 0.00 82 1002.9
20260503022706 56 166 1.0 3.0 0.00 0.00 0.00 81 1003.1
20260503022205 56 186 0.0 1.0 0.00 0.00 0.00 81 1003.2
20260503021703 57 165 2.0 3.0 0.00 0.00 0.00 80 1003.0
20260503021159 57 144 2.0 3.0 0.00 0.00 0.00 79 1003.0
20260503020656 57 192 0.0 0.0 0.00 0.00 0.00 79 1003.2
20260503020154 57 215 0.0 3.0 0.00 0.00 0.00 80 1003.0
20260503015650 57 125 1.0 2.0 0.00 0.00 0.00 79 1003.0
20260503015147 58 210 1.0 5.0 0.00 0.00 0.00 78 1003.1
20260503014643 58 224 2.0 3.0 0.00 0.00 0.00 78 1003.3
20260503014141 58 144 3.0 7.0 0.00 0.00 0.00 77 1003.0
20260503013638 59 262 2.0 2.0 0.00 0.00 0.00 75 1003.0
20260503013136 60 198 0.0 3.0 0.00 0.00 0.00 76 1002.8
20260503012633 60 198 0.0 0.0 0.00 0.00 0.00 75 1003.1
20260503012130 60 207 0.0 2.0 0.00 0.00 0.00 74 1003.1
20260503011626 61 80 0.0 6.0 0.00 0.00 0.00 73 1003.1
20260503011123 62 150 0.0 3.0 0.00 0.00 0.00 71 1003.0
20260503010619 62 193 0.0 1.0 0.00 0.00 0.00 71 1003.0
20260503010117 63 155 1.0 1.0 0.00 0.00 0.00 71 1003.0
20260503005614 63 153 0.0 2.0 0.00 0.00 0.00 69 1003.1
20260503005111 64 293 0.0 1.0 0.00 0.00 0.00 68 1003.0
20260503004607 63 199 0.0 2.0 0.00 0.00 0.00 70 1003.0
20260503004106 63 198 0.0 3.0 0.00 0.00 0.00 70 1003.0
20260503003602 63 189 1.0 2.0 0.00 0.00 0.00 70 1002.9
20260503003059 63 298 1.0 1.0 0.00 0.00 0.00 69 1002.9
20260503002556 63 206 0.0 2.0 0.00 0.00 0.00 69 1003.1
20260503002053 64 220 2.0 3.0 0.00 0.00 0.00 68 1002.9
20260503001543 64 230 3.0 6.0 0.00 0.00 0.00 69 1003.0
20260503001041 67 229 0.0 2.0 0.00 0.00 0.00 64 1002.9
20260503000538 67 255 2.0 5.0 0.00 0.00 0.00 64 1002.9
20260503000035 67 237 0.0 3.0 0.00 0.00 0.00 65 1002.9
20260502235531 67 6 2.0 2.0 0.00 0.00 0.00 63 1003.1
20260502235030 66 128 1.0 6.0 0.00 0.00 0.00 65 1002.9
20260502234525 67 144 0.0 3.0 0.00 0.00 0.00 64 1002.9
20260502234023 69 238 3.0 6.0 0.00 0.00 0.00 62 1002.9
20260502233523 68 187 1.0 8.0 0.00 0.00 0.00 65 1002.8
20260502233021 68 224 1.0 2.0 0.00 0.00 0.00 63 1002.8
20260502232517 71 190 2.0 3.0 0.00 0.00 0.00 61 1002.8
20260502232014 71 144 1.0 3.0 0.00 0.00 0.00 60 1003.0
20260502231511 71 233 1.0 2.0 0.00 0.00 0.00 60 1002.8
20260502231009 70 218 0.0 3.0 0.00 0.00 0.00 61 1003.1
20260502230507 69 253 2.0 2.0 0.00 0.00 0.00 61 1003.1
20260502230006 69 248 3.0 5.0 0.00 0.00 0.00 61 1003.2
20260502225501 68 211 1.0 2.0 0.00 0.00 0.00 61 1003.2
20260502224958 69 184 1.0 5.0 0.00 0.00 0.00 62 1003.5
20260502224454 71 57 3.0 3.0 0.00 0.00 0.00 59 1003.5
20260502223951 69 81 0.0 2.0 0.00 0.00 0.00 60 1003.8
20260502223449 70 224 0.0 2.0 0.00 0.00 0.00 57 1003.9
20260502222947 70 213 0.0 1.0 0.00 0.00 0.00 60 1003.7
20260502222444 69 163 2.0 5.0 0.00 0.00 0.00 59 1003.9
20260502221939 69 157 0.0 5.0 0.00 0.00 0.00 61 1003.9
20260502221436 70 53 3.0 5.0 0.00 0.00 0.00 58 1004.1
20260502220933 69 23 0.0 5.0 0.00 0.00 0.00 60 1004.1
20260502220429 69 315 1.0 3.0 0.00 0.00 0.00 58 1004.5
20260502215925 69 41 0.0 2.0 0.00 0.00 0.00 60 1004.4
20260502215423 69 274 2.0 3.0 0.00 0.00 0.00 59 1004.6
20260502214920 68 228 0.0 3.0 0.00 0.00 0.00 63 1004.5
20260502214416 68 314 2.0 2.0 0.00 0.00 0.00 61 1004.7
20260502213914 68 237 3.0 5.0 0.00 0.00 0.00 62 1004.5
20260502213410 67 203 1.0 3.0 0.00 0.00 0.00 63 1004.7
20260502212909 65 251 2.0 3.0 0.00 0.00 0.00 67 1004.5
20260502212408 65 225 3.0 3.0 0.00 0.00 0.00 68 1004.8
20260502211904 65 239 1.0 3.0 0.00 0.00 0.00 66 1004.7
20260502211400 65 240 1.0 2.0 0.00 0.00 0.00 65 1004.8
20260502210858 64 205 0.0 0.0 0.00 0.00 0.00 69 1004.9
20260502210354 65 222 1.0 1.0 0.00 0.00 0.00 67 1005.1
20260502205852 65 171 0.0 3.0 0.00 0.00 0.00 66 1004.9
20260502205347 66 207 0.0 1.0 0.00 0.00 0.00 66 1005.1
20260502204845 66 212 0.0 1.0 0.00 0.00 0.00 66 1005.4
20260502204342 63 249 1.0 2.0 0.00 0.00 0.00 72 1005.3
20260502203840 63 263 2.0 3.0 0.00 0.00 0.00 70 1005.4